Flag for U.S.A. Weather past 2 weeks in Anaheim, California, U.S.A.

Now
79 °F

Clear.


Feels Like: 80 °F
Forecast: 71 / 89 °F
Wind: 6 mph from Southwest

Location: Fullerton Municipal Airport

Current Time: Jul 24, 2014 at 10:16:49 PM

Latest Report: Jul 24, 2014 at 9:53 PM


Visibility: 10 mi

Pressure: 29.79 "Hg

Humidity: 47%

Dew point: 57 °F

Location of AnaheimLocation

Historic Weather in Anaheim — Graph

°F

Anaheim temperature yesterday

Maximum temperature yesterday: 93 °F (at 2:53 PM)
Minimum temperature yesterday: 67 °F (at 5:53 AM)
Average temperature yesterday: 79 °F

Past Weeks' High & Low Weather Summary

 TemperatureHumidityPressure
High96 °F (Jul 24, 3:53 PM)85% (Jul 12, 4:53 AM)30.05 "Hg (Jul 12, 4:53 AM)
Low65 °F (Jul 18, 5:53 AM)25% (Jul 23, 3:53 PM)29.71 "Hg (Jul 24, 5:53 PM)
Average74 °F63%29.95 "Hg
* Reported Jul 9 8:53 PM — Jul 24 8:53 PM, Anaheim, Weather by CustomWeather, © 2014

Note: Actual official high and low records may vary slightly from our data, if they occured in-between our weather recording intervals... More about our weather records

Advertising

Anaheim weather history for previous 24 hours

 ConditionsComfort  
Time TempWeatherWind HumidityBarometerVisibility
8:53 PM
Jul 24
81 °FSunny.5 mph44%29.76 "Hg10 mi
7:53 PM84 °FSunny.5 mph38%29.73 "Hg10 mi
6:53 PM89 °FSunny.7 mph31%29.72 "Hg10 mi
5:53 PM92 °FSunny.6 mph28%29.71 "Hg10 mi
4:53 PM96 °FSunny.6 mph25%29.72 "Hg10 mi
3:53 PM96 °FSunny.8 mph29%29.74 "Hg10 mi
2:53 PM92 °FSunny.9 mph36%29.76 "Hg10 mi
1:53 PM92 °FSunny.10 mph35%29.78 "Hg10 mi
12:53 PM92 °FSunny.8 mph36%29.79 "Hg10 mi
11:53 AM92 °FSunny.3 mph30%29.80 "Hg10 mi
10:53 AM88 °FSunny.No wind35%29.82 "Hg10 mi
9:53 AM83 °FSunny.5 mph44%29.83 "Hg10 mi
8:53 AM77 °FSunny.No wind56%29.85 "Hg10 mi
7:53 AM73 °FSunny.No wind64%29.86 "Hg10 mi
6:53 AM69 °FClear.No wind70%29.86 "Hg10 mi
5:53 AM66 °FClear.No wind78%29.85 "Hg10 mi
4:53 AM67 °FClear.No wind76%29.83 "Hg10 mi
3:53 AM68 °FClear.No wind76%29.84 "Hg10 mi
2:53 AM69 °FClear.No wind73%29.85 "Hg10 mi
1:53 AM70 °FClear.No wind71%29.86 "Hg10 mi
12:53 AM71 °FClear.No wind68%29.88 "Hg10 mi
11:53 PM
Jul 23
73 °FClear.No wind64%29.89 "Hg10 mi
10:53 PM74 °FClear.3 mph60%29.89 "Hg10 mi
Weather by CustomWeather, © 2014

See weather overviewHow to use our weather pages